{"data":{"norad_id":55808,"intl_designator":"2023-029N","name":"ONEWEB-0644","alt_names":[],"object_type":"PAYLOAD","status":"ACTIVE","operator":null,"country":"UK","launch_date":"2023-03-09","launch_site_code":"AFETR","launch_vehicle":null,"mission":null,"orbit_class":"UNKNOWN","rcs_meters":null,"size_class":null,"mass_kg":null,"dimensions":null,"purposes":["comms"],"wikipedia_slug":null,"has_3d_model":false,"image_url":null,"decayed_at":null,"tle_current":{"epoch":"2026-05-25T04:43:26.461056Z","epoch_age_seconds":68411,"freshness":"FRESH","line1":"1 55808U 23029N   26145.19683404 -.00000048  00000+0 -15304-3 0  9994","line2":"2 55808  87.9149 309.5622 0001437  92.6911 267.4386 13.19725737155873","mean_motion":13.19725737,"eccentricity":0.0001437,"inclination_deg":87.9149,"raan_deg":309.5622,"arg_perigee_deg":92.6911,"mean_anomaly_deg":267.4386,"bstar":-0.00015304,"rev_number":15587,"period_min":109.11358016503,"perigee_km":1184.6808028474,"apogee_km":1186.8546690685,"semimajor_km":7563.9047359579,"source":"CELESTRAK","updated_at":"2026-05-25T13:38:22.692100Z"}}}